Location: Balaclava NSW 2575, Australia
(34.4510°S, 150.4953°E)
Time: 16:41:24
(UTC+10:00)

Envisat - Pass Details

Date: 17 May 2021
Orbit: 764 x 766 km, 98.1° (Epoch: 18 June)

Event Time Altitude Azimuth Distance (km) Brightness Sun altitude
Rises 03:51:33 0° 41° (NE) 3,221 6.7 -35.8°
Reaches altitude 10° 03:54:05 10° 51° (NE) 2,304 6.0 -35.2°
Maximum altitude 03:58:25 29° 110° (ESE) 1,381 4.7 -34.3°
Enters shadow 04:00:13 23° 144° (SE) 1,584 4.9 -34.0°
